{"data":{"norad_id":52713,"intl_designator":"2022-054A","name":"COSMOS 2556","alt_names":[],"object_type":"PAYLOAD","status":"ACTIVE","operator":null,"country":"CIS","launch_date":"2022-05-19","launch_site_code":"PLMSC","launch_vehicle":null,"mission":null,"orbit_class":"UNKNOWN","rcs_meters":null,"size_class":null,"mass_kg":null,"dimensions":null,"purposes":[],"wikipedia_slug":null,"has_3d_model":false,"image_url":null,"decayed_at":null,"tle_current":{"epoch":"2026-05-25T05:03:56.916288Z","epoch_age_seconds":56831,"freshness":"FRESH","line1":"1 52713U 22054A   26145.21107542  .00002159  00000+0  86935-4 0  9992","line2":"2 52713  97.6272  94.4323 0001907 108.5380 251.6065 15.26007815223232","mean_motion":15.26007815,"eccentricity":0.0001907,"inclination_deg":97.6272,"raan_deg":94.4323,"arg_perigee_deg":108.538,"mean_anomaly_deg":251.6065,"bstar":8.6935e-5,"rev_number":22323,"period_min":94.363867985827,"perigee_km":486.4514981281,"apogee_km":489.0701515585,"semimajor_km":6865.8978248433,"source":"CELESTRAK","updated_at":"2026-05-25T13:37:57.884385Z"}}}